�N����,����,�~����,�C��,���x,�C��,����,���ϕ���,�ő�u�ԕ���,�ő厞����,���˗�,�I�_���x,�n�����x,�ő啗���N��,DTYPE
"19/11/11","00:10",0.0,8.5,87.2,1007.4,290.9,1.3,1.9,317.9,0.00,6.5,13.6,"00:02:24",1
"19/11/11","00:20",0.0,8.6,87.5,1006.9,284.9,1.3,2.1,323.8,0.00,6.7,13.9,"00:12:40",1
"19/11/11","00:30",0.0,8.7,87.6,1007.1,293.1,1.5,2.1,316.6,0.00,6.8,13.7,"00:27:12",1
"19/11/11","00:40",0.0,8.6,87.8,1007.6,301.2,1.3,1.9,341.7,0.00,6.7,13.7,"00:31:36",1
"19/11/11","00:50",0.0,8.5,88.0,1007.4,303.5,1.1,1.7,298.1,0.00,6.7,13.6,"00:40:02",1
"19/11/11","01:00",0.0,8.4,88.3,1007.1,303.6,1.7,2.5,316.0,0.00,6.6,13.8,"00:54:08",1
"19/11/11","01:10",0.0,8.5,88.6,1007.6,306.4,1.6,2.6,318.4,0.00,6.8,13.6,"01:03:20",1
"19/11/11","01:20",0.0,8.5,88.9,1007.4,302.8,1.0,1.9,312.9,0.00,6.8,13.7,"01:10:24",1
"19/11/11","01:30",0.0,8.3,88.9,1007.4,298.8,0.7,1.4,266.0,0.00,6.6,13.3,"01:27:36",1
"19/11/11","01:40",0.0,8.1,89.3,1007.4,315.3,1.7,2.6,318.3,0.00,6.5,13.4,"01:38:56",1
"19/11/11","01:50",0.0,8.0,89.5,1007.1,305.6,1.7,2.4,314.8,0.00,6.4,13.5,"01:41:36",1
"19/11/11","02:00",0.0,7.8,89.7,1007.1,292.0,1.1,1.4,305.5,0.00,6.3,13.5,"01:52:40",1
"19/11/11","02:10",0.0,7.6,89.8,1007.1,293.2,1.1,1.4,278.0,0.00,6.1,13.4,"02:04:08",1
"19/11/11","02:20",0.0,7.5,90.1,1007.4,303.3,1.7,2.1,317.6,0.00,6.0,13.3,"02:12:48",1
"19/11/11","02:30",0.0,7.4,90.2,1007.1,298.0,1.2,2.4,311.0,0.00,5.9,13.2,"02:21:36",1
"19/11/11","02:40",0.0,7.1,90.4,1006.9,288.7,1.3,2.1,316.6,0.00,5.7,13.2,"02:39:52",1
"19/11/11","02:50",0.0,7.1,90.7,1006.9,310.4,1.8,2.5,320.3,0.00,5.7,13.2,"02:41:04",1
"19/11/11","03:00",0.0,6.8,90.8,1006.9,294.9,0.8,1.4,289.3,0.00,5.4,12.9,"02:50:02",1
"19/11/11","03:10",0.0,6.5,91.1,1006.4,296.8,1.3,2.1,316.0,0.00,5.2,13.0,"03:09:20",1
"19/11/11","03:20",0.0,6.5,91.4,1006.4,311.0,1.6,2.1,314.7,0.00,5.2,12.8,"03:15:20",1
"19/11/11","03:30",0.0,6.4,91.5,1006.2,299.7,1.5,1.9,310.1,0.00,5.2,12.8,"03:29:44",1
"19/11/11","03:40",0.0,6.2,91.7,1006.0,302.5,1.5,2.0,325.7,0.00,5.0,12.8,"03:30:40",1
"19/11/11","03:50",0.0,6.0,92.0,1006.0,283.7,0.8,1.4,261.7,0.00,4.8,12.8,"03:40:48",1
"19/11/11","04:00",0.0,5.9,92.2,1005.7,307.9,1.5,2.1,318.7,0.00,4.8,12.6,"03:57:12",1
"19/11/11","04:10",0.0,5.9,92.4,1005.7,303.5,1.6,2.2,313.5,0.00,4.8,12.7,"04:02:16",1
"19/11/11","04:20",0.0,5.7,92.6,1005.5,306.3,1.0,1.7,318.0,0.00,4.6,12.6,"04:19:40",1
"19/11/11","04:30",0.0,5.7,92.8,1005.5,303.7,1.3,2.0,323.0,0.00,4.7,12.5,"04:20:56",1
"19/11/11","04:40",0.0,5.7,93.0,1005.2,297.4,1.0,1.9,311.8,0.00,4.7,12.2,"04:38:48",1
"19/11/11","04:50",0.0,5.7,93.1,1005.2,308.2,1.1,1.7,298.5,0.00,4.7,12.4,"04:40:24",1
"19/11/11","05:00",0.0,5.5,93.4,1005.0,301.3,1.2,2.1,323.7,0.00,4.6,12.3,"04:58:24",1
"19/11/11","05:10",0.0,6.4,93.5,1005.0,320.8,1.0,2.1,304.6,0.00,5.5,12.4,"05:09:12",1
"19/11/11","05:20",0.0,6.2,93.4,1005.2,299.4,1.6,2.4,317.4,0.00,5.3,12.3,"05:10:48",1
"19/11/11","05:30",0.0,6.1,93.7,1004.8,287.8,1.1,1.7,306.9,0.00,5.2,12.2,"05:26:56",1
"19/11/11","05:40",0.0,6.2,93.8,1005.0,309.2,1.1,2.2,317.9,0.00,5.3,12.3,"05:36:32",1
"19/11/11","05:50",0.0,6.1,94.0,1005.2,277.9,1.2,2.0,249.2,0.00,5.2,12.0,"05:43:04",1
"19/11/11","06:00",0.0,6.8,94.3,1005.0,316.1,1.3,2.4,334.4,0.00,6.0,12.2,"05:56:08",1
"19/11/11","06:10",0.0,7.2,94.2,1005.2,289.8,1.6,2.5,322.5,0.00,6.4,12.4,"06:05:28",1
"19/11/11","06:20",0.0,7.4,94.2,1005.2,316.6,1.8,2.5,322.7,0.00,6.6,12.3,"06:13:52",1
"19/11/11","06:30",0.0,7.4,94.3,1004.8,294.7,1.5,2.2,306.8,0.00,6.6,12.4,"06:20:40",1
"19/11/11","06:40",0.0,7.4,94.4,1005.0,294.6,1.5,2.4,315.3,0.00,6.6,12.5,"06:36:48",1
"19/11/11","06:50",0.0,7.3,94.5,1004.8,292.8,1.2,1.6,314.9,0.00,6.5,12.4,"06:40:08",1
"19/11/11","07:00",0.0,7.5,94.7,1004.5,312.7,1.3,2.5,329.3,0.00,6.7,12.3,"06:58:40",1
"19/11/11","07:10",0.0,7.7,94.8,1004.5,320.6,1.7,2.1,323.6,0.00,7.0,12.2,"07:03:12",1
"19/11/11","07:20",0.0,7.7,94.9,1005.2,297.8,1.5,2.6,319.3,0.00,7.0,12.4,"07:12:24",1
"19/11/11","07:30",0.0,7.8,94.9,1004.5,294.0,1.3,2.0,315.2,0.00,7.1,12.4,"07:27:28",1
"19/11/11","07:40",0.0,8.3,95.1,1004.5,311.5,2.0,2.5,321.7,0.02,7.6,12.5,"07:36:16",1
"19/11/11","07:50",0.0,8.9,95.1,1004.5,291.2,1.7,2.2,309.7,0.02,8.2,12.4,"07:43:04",1
"19/11/11","08:00",0.0,9.5,94.9,1004.8,272.1,1.1,1.6,298.6,0.01,8.8,12.6,"07:50:16",1
"19/11/11","08:10",0.0,9.9,94.9,1004.8,303.1,1.7,2.4,318.9,0.02,9.2,12.7,"08:04:16",1
"19/11/11","08:20",0.0,10.4,95.1,1004.8,304.4,1.2,1.6,313.5,0.04,9.7,12.6,"08:11:44",1
"19/11/11","08:30",0.0,10.6,94.8,1004.5,280.2,0.5,1.3,291.5,0.02,9.8,12.7,"08:24:40",1
"19/11/11","08:40",0.0,10.9,95.0,1005.0,293.7,0.6,1.8,318.7,0.07,10.2,12.9,"08:39:20",1
"19/11/11","08:50",0.0,11.3,94.7,1004.8,320.9,1.0,1.7,321.5,0.06,10.5,12.9,"08:40:40",1
"19/11/11","09:00",0.0,11.4,94.8,1004.5,316.5,1.1,1.8,322.6,0.05,10.6,13.0,"08:58:08",1
"19/11/11","09:10",0.0,11.7,94.7,1004.5,298.5,1.0,1.8,315.5,0.07,10.9,13.1,"09:02:56",1
"19/11/11","09:20",0.0,11.8,94.5,1004.8,326.1,1.1,1.9,328.2,0.09,11.0,13.3,"09:11:36",1
"19/11/11","09:30",0.0,11.6,93.8,1004.5,348.9,0.7,1.6,325.5,0.07,10.7,13.3,"09:21:44",1
"19/11/11","09:40",0.0,12.3,94.2,1004.8,299.9,0.6,1.1,311.1,0.11,11.4,13.5,"09:34:32",1
"19/11/11","09:50",0.0,13.2,93.4,1005.0,271.2,0.7,1.4,276.7,0.21,12.2,13.6,"09:47:28",1
"19/11/11","10:00",0.0,13.1,92.3,1004.8,257.5,0.8,1.2,253.5,0.12,11.9,13.7,"09:50:32",1
"19/11/11","10:10",0.0,13.9,91.6,1004.5,296.8,0.5,1.2,321.7,0.08,12.6,13.7,"10:07:52",1
"19/11/11","10:20",0.0,13.8,90.5,1004.5,312.0,0.7,1.1,329.7,0.03,12.3,13.9,"10:10:48",1
"19/11/11","10:30",0.0,13.4,89.1,1005.0,305.4,0.6,1.2,323.3,0.03,11.7,14.0,"10:25:52",1
"19/11/11","10:40",0.0,13.4,87.8,1004.5,341.7,0.8,1.6,337.8,0.02,11.5,14.0,"10:38:24",1
"19/11/11","10:50",0.0,13.4,86.5,1004.3,326.1,0.8,1.8,336.0,0.01,11.2,14.0,"10:41:04",1
"19/11/11","11:00",0.0,13.3,85.3,1004.3,290.4,1.0,1.4,313.7,0.00,10.9,14.1,"10:53:04",1
"19/11/11","11:10",2.0,13.3,85.2,1004.1,295.3,1.0,2.1,345.1,0.00,10.9,14.0,"11:09:14",1
"19/11/11","11:20",0.2,13.3,86.0,1003.8,317.1,1.1,2.7,317.3,0.02,11.0,13.9,"11:13:14",1
"19/11/11","11:30",0.4,13.2,86.7,1003.8,274.1,1.0,1.6,241.7,0.03,11.1,14.1,"11:26:32",1
"19/11/11","11:40",0.2,13.9,87.7,1003.4,293.6,0.7,1.3,260.2,0.20,11.9,14.0,"11:30:32",1
"19/11/11","11:50",0.0,15.0,88.3,1003.4,88.3,0.7,2.0,111.0,0.42,13.1,14.4,"11:44:08",1
"19/11/11","12:00",0.0,15.3,87.7,1003.6,207.0,0.7,1.9,192.2,0.28,13.3,14.6,"11:58:56",1
"19/11/11","12:10",0.0,15.9,88.0,1003.4,162.6,0.7,1.7,107.8,0.41,14.0,14.8,"12:05:04",1
"19/11/11","12:20",0.0,16.6,86.8,1003.1,231.4,0.6,1.8,129.4,0.49,14.4,14.8,"12:10:48",1
"19/11/11","12:30",0.0,17.2,85.2,1002.6,252.6,0.8,2.1,216.8,0.43,14.7,15.4,"12:20:56",1
"19/11/11","12:40",0.0,17.8,83.4,1002.9,192.4,0.7,2.4,226.0,0.45,15.0,15.6,"12:39:44",1
"19/11/11","12:50",0.0,17.8,81.9,1002.9,172.6,0.7,1.7,125.5,0.41,14.7,15.7,"12:45:20",1
"19/11/11","13:00",0.0,17.1,79.7,1002.9,193.5,1.1,2.7,200.3,0.26,13.6,16.1,"12:57:36",1
"19/11/11","13:10",0.0,17.3,80.2,1002.6,197.7,0.6,1.6,219.1,0.21,13.9,16.2,"13:00:24",1
"19/11/11","13:20",0.0,17.3,80.0,1002.6,212.3,0.6,1.8,229.9,0.15,13.9,16.3,"13:14:48",1
"19/11/11","13:30",0.0,17.8,80.4,1002.4,312.9,0.5,1.1,226.7,0.24,14.4,16.5,"13:20:40",1
"19/11/11","13:40",0.0,17.6,78.8,1002.2,210.1,0.5,1.1,177.6,0.09,13.9,16.4,"13:30:56",1
"19/11/11","13:50",0.0,17.1,78.8,1002.2,171.1,0.5,1.4,104.0,0.02,13.4,16.3,"13:40:16",1
"19/11/11","14:00",0.0,16.9,80.0,1002.2,206.4,1.1,1.9,130.9,0.02,13.5,16.2,"13:55:20",1
"19/11/11","14:10",0.0,16.6,81.4,1002.2,198.4,1.2,2.9,200.1,0.03,13.4,16.3,"14:02:32",1
"19/11/11","14:20",0.0,16.6,79.8,1001.9,237.9,1.7,4.1,234.1,0.05,13.1,16.2,"14:15:20",1
"19/11/11","14:30",0.0,17.3,76.5,1002.4,259.9,1.3,3.7,229.3,0.09,13.2,16.2,"14:20:24",1
"19/11/11","14:40",0.0,17.9,73.4,1002.2,239.1,2.0,4.9,227.7,0.20,13.1,16.2,"14:39:20",1
"19/11/11","14:50",0.0,18.7,68.5,1001.7,244.1,2.1,4.2,221.7,0.25,12.8,16.2,"14:44:08",1
"19/11/11","15:00",0.0,19.2,66.6,1001.5,254.4,1.6,3.6,256.2,0.23,12.9,16.3,"14:53:04",1
"19/11/11","15:10",0.0,19.2,64.7,1001.7,253.1,2.0,3.4,229.3,0.17,12.4,16.3,"15:09:44",1
"19/11/11","15:20",0.0,18.6,65.2,1001.5,246.9,1.8,3.6,233.2,0.07,12.0,16.6,"15:14:16",1
"19/11/11","15:30",0.0,18.1,66.5,1001.5,244.7,1.8,3.4,233.1,0.02,11.8,16.3,"15:25:44",1
"19/11/11","15:40",0.0,18.1,68.0,1001.2,241.9,1.6,6.3,222.6,0.05,12.1,16.3,"15:30:24",1
"19/11/11","15:50",0.0,17.8,68.7,1001.5,246.3,1.6,4.1,222.7,0.00,12.0,16.3,"15:40:16",1
"19/11/11","16:00",0.2,17.6,71.3,1002.2,299.7,1.6,3.1,342.2,0.00,12.4,16.2,"15:56:16",1
"19/11/11","16:10",0.0,16.5,75.0,1001.9,342.0,1.5,4.3,333.5,0.02,12.1,16.2,"16:02:24",1
"19/11/11","16:20",0.0,15.9,77.6,1002.2,317.1,1.2,2.0,325.3,0.01,12.0,16.2,"16:17:44",1
"19/11/11","16:30",0.0,15.5,80.0,1002.2,321.8,1.2,2.2,339.3,0.00,12.1,16.2,"16:23:04",1
"19/11/11","16:40",0.0,15.5,81.9,1002.2,317.1,1.1,2.1,329.3,0.02,12.5,16.1,"16:35:12",1
"19/11/11","16:50",0.0,15.2,83.1,1002.4,326.4,1.1,1.8,320.3,0.02,12.4,15.9,"16:40:48",1
"19/11/11","17:00",0.0,14.8,84.1,1002.6,308.3,1.0,2.4,341.8,0.00,12.2,15.7,"16:57:36",1
"19/11/11","17:10",0.0,14.3,84.9,1002.2,318.9,1.0,1.7,318.9,0.00,11.8,15.8,"17:01:04",1
"19/11/11","17:20",0.0,14.0,85.6,1002.9,321.9,1.0,1.4,327.3,0.00,11.7,15.9,"17:10:40",1
"19/11/11","17:30",0.0,13.5,86.1,1002.6,298.7,0.7,1.3,328.7,0.00,11.3,15.7,"17:28:26",1
"19/11/11","17:40",0.0,13.2,86.8,1002.9,308.6,0.8,1.3,327.1,0.00,11.1,15.7,"17:38:24",1
"19/11/11","17:50",0.0,13.1,87.3,1003.1,311.6,1.0,1.4,319.0,0.00,11.1,15.5,"17:49:12",1
"19/11/11","18:00",0.0,13.0,87.7,1003.6,315.8,1.1,1.4,312.1,0.00,11.0,15.7,"17:57:44",1
"19/11/11","18:10",0.0,12.7,88.2,1003.8,300.6,0.8,1.6,323.3,0.00,10.8,15.4,"18:07:36",1
"19/11/11","18:20",0.0,12.5,88.8,1003.8,311.9,1.0,1.7,307.5,0.00,10.7,15.3,"18:16:56",1
"19/11/11","18:30",0.0,12.3,89.2,1004.1,314.3,1.1,1.7,335.2,0.00,10.6,15.2,"18:24:48",1
"19/11/11","18:40",0.0,11.8,89.6,1004.3,297.8,0.8,1.4,331.3,0.00,10.2,15.2,"18:34:00",1
"19/11/11","18:50",0.0,11.5,90.1,1004.8,293.7,0.8,1.3,308.6,0.00,10.0,15.0,"18:40:02",1
"19/11/11","19:00",0.0,11.6,90.4,1004.5,301.5,1.0,1.8,314.7,0.00,10.1,15.0,"18:54:16",1
"19/11/11","19:10",0.0,11.7,90.7,1004.8,294.3,1.2,2.0,313.9,0.00,10.3,14.9,"19:01:20",1
"19/11/11","19:20",0.0,11.6,91.0,1004.8,306.6,1.1,1.8,331.1,0.00,10.2,14.8,"19:12:08",1
"19/11/11","19:30",0.0,11.6,91.5,1005.2,281.7,1.0,1.7,244.5,0.00,10.3,14.6,"19:24:32",1
"19/11/11","19:40",0.0,11.6,91.8,1005.0,324.2,0.8,1.6,336.1,0.00,10.4,14.6,"19:30:48",1
"19/11/11","19:50",0.0,11.2,92.1,1004.8,309.4,1.1,1.6,321.2,0.00,10.0,14.6,"19:42:56",1
"19/11/11","20:00",0.0,11.2,92.4,1005.5,312.5,1.2,1.7,335.6,0.00,10.1,14.6,"19:57:28",1
"19/11/11","20:10",0.0,11.0,92.7,1005.5,293.7,0.8,1.4,314.4,0.00,9.9,14.4,"20:09:12",1
"19/11/11","20:20",0.0,11.0,92.8,1005.7,300.2,1.0,1.9,323.8,0.00,9.9,14.3,"20:17:04",1
"19/11/11","20:30",0.0,11.0,92.9,1005.7,343.0,0.6,1.3,314.4,0.00,9.9,14.3,"20:28:00",1
"19/11/11","20:40",0.0,10.5,93.4,1006.0,308.0,1.1,2.0,329.8,0.00,9.5,14.2,"20:35:12",1
"19/11/11","20:50",0.0,10.4,93.6,1006.2,345.0,0.6,1.7,292.6,0.00,9.5,14.2,"20:43:04",1
"19/11/11","21:00",0.0,10.3,93.8,1006.2,284.3,1.0,1.9,317.5,0.00,9.4,14.1,"20:50:56",1
"19/11/11","21:10",0.0,10.4,94.1,1006.2,324.5,1.1,2.2,319.4,0.00,9.5,14.0,"21:08:00",1
"19/11/11","21:20",0.0,10.3,94.2,1006.7,302.3,0.7,1.7,331.6,0.00,9.4,13.9,"21:15:36",1
"19/11/11","21:30",0.0,10.2,94.3,1006.4,269.6,0.6,1.2,323.6,0.00,9.4,13.9,"21:29:20",1
"19/11/11","21:40",0.0,10.3,94.5,1006.7,323.7,1.0,2.0,352.4,0.00,9.5,14.0,"21:34:32",1
"19/11/11","21:50",0.0,9.9,94.6,1006.9,291.5,1.0,1.7,321.5,0.00,9.1,13.9,"21:42:00",1
"19/11/11","22:00",0.0,10.0,94.9,1007.4,306.2,1.0,1.6,312.9,0.00,9.3,13.9,"21:53:36",1
"19/11/11","22:10",0.0,10.4,95.0,1006.9,331.4,1.2,2.2,351.2,0.00,9.7,13.8,"22:06:56",1
"19/11/11","22:20",0.0,10.7,95.1,1007.1,307.8,1.3,2.5,314.8,0.00,10.0,13.8,"22:19:44",1
"19/11/11","22:30",0.0,11.0,95.1,1007.1,287.5,1.1,1.9,333.0,0.00,10.3,13.8,"22:20:08",1
"19/11/11","22:40",0.0,11.0,95.2,1007.1,283.7,1.1,1.9,322.5,0.00,10.3,13.8,"22:31:20",1
"19/11/11","22:50",0.0,11.0,95.3,1007.4,289.7,1.2,2.2,338.0,0.00,10.3,13.8,"22:49:44",1
"19/11/11","23:00",0.0,11.0,95.4,1007.6,310.7,1.5,2.0,310.5,0.00,10.3,13.7,"22:51:44",1
"19/11/11","23:10",0.0,11.2,95.4,1007.6,302.2,1.2,2.5,337.1,0.00,10.5,13.8,"23:03:20",1
"19/11/11","23:20",0.0,11.3,95.4,1007.4,298.7,1.1,1.4,303.4,0.00,10.6,13.7,"23:10:24",1
"19/11/11","23:30",0.0,11.3,95.5,1007.8,309.6,1.1,1.9,328.0,0.00,10.6,13.7,"23:22:16",1
"19/11/11","23:40",0.0,11.5,95.6,1007.8,301.4,1.0,1.8,329.4,0.00,10.9,14.0,"23:34:08",1
"19/11/11","23:50",0.0,11.5,95.6,1007.8,291.1,0.8,1.2,298.6,0.00,10.9,13.9,"23:40:32",1
"19/11/11","24:00",0.0,11.5,95.6,1007.6,302.3,0.8,1.4,323.6,0.00,10.9,13.9,"23:52:00",1
